IGO301 VABB-WSSS

Flight info

Callsign IGO301
Flight time N/A
Altitude 38000
Route VABB/27 N0490F390 VEVA2A AGELA N571 GUNIP M630 NIREN Y511 TOPOR A464 ARAMA ARAM1A WSSS/02L
Aircraft A321/H-SDFGHIRWY/C

Departure

Time 2026-04-30 18:21
Airport Chhatrapati Shivaji Maharaj International Airport (VABB)

Arrival

Time N/A
Airport Singapore Changi Airport (WSSS)
Time Latitude Longitude Altitude Speed Heading
2026-04-30 18:00 19.09311 72.86784 36 ft 0 kts 204°
2026-04-30 18:11 19.09359 72.86806 34 ft 3 kts 204°
2026-04-30 18:12 19.09413 72.86807 34 ft 3 kts 170°
2026-04-30 18:13 19.09426 72.86803 36 ft 0 kts 140°
2026-04-30 18:15 19.09387 72.86852 35 ft 15 kts 131°
2026-04-30 18:16 19.09361 72.86883 35 ft 15 kts 132°
2026-04-30 18:17 19.09328 72.86920 36 ft 16 kts 136°
2026-04-30 18:17 19.09257 72.86996 36 ft 24 kts 123°
2026-04-30 18:17 19.09173 72.87265 37 ft 14 kts 179°
2026-04-30 18:18 19.09168 72.87265 37 ft 14 kts 179°
2026-04-30 18:18 19.09053 72.87300 38 ft 11 kts 101°
2026-04-30 18:18 19.09053 72.87482 39 ft 36 kts 90°
2026-04-30 18:19 19.09055 72.87744 40 ft 32 kts 89°
2026-04-30 18:19 19.09057 72.87901 41 ft 32 kts 89°
2026-04-30 18:19 19.09004 72.88051 41 ft 12 kts 175°
2026-04-30 18:19 19.08915 72.88048 40 ft 12 kts 203°
2026-04-30 18:20 19.08888 72.87956 40 ft 24 kts 269°
2026-04-30 18:20 19.08884 72.87713 39 ft 79 kts 269°
2026-04-30 18:20 19.08858 72.86363 45 ft 188 kts 265°
2026-04-30 18:20 19.08814 72.84895 549 ft 210 kts 268°
2026-04-30 18:21 19.08770 72.83271 1115 ft 237 kts 267°
2026-04-30 18:21 19.08711 72.81427 1771 ft 265 kts 268°
2026-04-30 18:21 19.08700 72.79450 2252 ft 267 kts 269°
2026-04-30 18:21 19.08696 72.77462 2796 ft 274 kts 269°
2026-04-30 18:22 19.08668 72.75434 3344 ft 278 kts 268°
2026-04-30 18:22 19.06916 72.71890 4438 ft 290 kts 215°
2026-04-30 18:22 19.04966 72.71266 4980 ft 303 kts 184°
2026-04-30 18:23 19.02896 72.71762 5537 ft 313 kts 157°
2026-04-30 18:23 19.00958 72.72857 6093 ft 318 kts 151°
2026-04-30 18:23 18.99035 72.74036 6624 ft 320 kts 154°
2026-04-30 18:23 18.96928 72.74718 7157 ft 316 kts 177°
2026-04-30 18:24 18.92529 72.74731 8240 ft 320 kts 185°
2026-04-30 18:24 18.90291 72.74654 8798 ft 323 kts 184°
2026-04-30 18:24 18.88032 72.74580 9366 ft 326 kts 184°
2026-04-30 18:25 18.85754 72.74511 9919 ft 328 kts 184°
2026-04-30 18:25 18.81089 72.74377 10739 ft 349 kts 184°
2026-04-30 18:25 18.78604 72.74347 11026 ft 365 kts 179°
2026-04-30 18:26 18.73497 72.75680 11641 ft 390 kts 163°
2026-04-30 18:26 18.71779 72.76288 11843 ft 396 kts 163°
2026-04-30 18:26 18.68245 72.77544 12263 ft 404 kts 163°
2026-04-30 18:27 18.62916 72.79417 12890 ft 407 kts 163°
2026-04-30 18:27 18.60221 72.80358 13214 ft 408 kts 163°
2026-04-30 18:28 18.54797 72.82245 13850 ft 412 kts 163°
2026-04-30 18:28 18.52068 72.83192 14142 ft 414 kts 163°
2026-04-30 18:28 18.46558 72.85104 14735 ft 419 kts 162°
2026-04-30 18:29 18.43817 72.86054 15043 ft 422 kts 162°
2026-04-30 18:29 18.35370 72.88980 15958 ft 430 kts 162°
2026-04-30 18:30 18.30612 72.90626 16482 ft 433 kts 162°
2026-04-30 18:30 18.23913 72.92944 17227 ft 439 kts 161°
2026-04-30 18:31 18.21006 72.93948 17556 ft 440 kts 161°
2026-04-30 18:31 18.15164 72.95966 18218 ft 443 kts 161°
2026-04-30 18:32 18.09509 72.98530 18796 ft 444 kts 147°
2026-04-30 18:32 18.07034 73.00463 19098 ft 443 kts 136°
2026-04-30 18:32 18.03547 73.04382 19600 ft 441 kts 129°
2026-04-30 18:33 18.00877 73.07676 20010 ft 442 kts 128°
2026-04-30 18:33 17.96876 73.12601 20630 ft 445 kts 128°
2026-04-30 18:33 17.95542 73.14237 20842 ft 447 kts 128°
2026-04-30 18:34 17.92819 73.17567 21265 ft 450 kts 128°
2026-04-30 18:34 17.88735 73.22553 21904 ft 456 kts 128°
2026-04-30 18:34 17.87360 73.24230 22129 ft 457 kts 128°
2026-04-30 18:35 17.84569 73.27632 22576 ft 461 kts 128°
2026-04-30 18:35 17.82466 73.30194 22916 ft 464 kts 128°
2026-04-30 18:35 17.80346 73.32776 23252 ft 467 kts 128°
2026-04-30 18:36 17.76071 73.37977 23862 ft 473 kts 128°
2026-04-30 18:36 17.73915 73.40600 24141 ft 476 kts 128°
2026-04-30 18:36 17.69589 73.45856 24708 ft 481 kts 128°
2026-04-30 18:37 17.67401 73.48514 24996 ft 483 kts 128°
2026-04-30 18:37 17.65200 73.51187 25303 ft 485 kts 129°
2026-04-30 18:37 17.62988 73.53872 25602 ft 487 kts 129°
2026-04-30 18:37 17.60767 73.56567 25899 ft 488 kts 129°
2026-04-30 18:38 17.58542 73.59265 26200 ft 490 kts 129°
2026-04-30 18:38 17.57068 73.61052 26403 ft 491 kts 129°
2026-04-30 18:38 17.54828 73.63767 26711 ft 492 kts 129°
2026-04-30 18:38 17.52589 73.66479 27036 ft 493 kts 129°
2026-04-30 18:39 17.50339 73.69204 27362 ft 494 kts 129°
2026-04-30 18:39 17.48086 73.71929 27682 ft 494 kts 129°
2026-04-30 18:39 17.45833 73.74655 27997 ft 495 kts 129°
2026-04-30 18:39 17.43581 73.77378 28326 ft 495 kts 129°
2026-04-30 18:40 17.41351 73.80124 28653 ft 494 kts 127°
2026-04-30 18:40 17.39434 73.83105 28987 ft 492 kts 117°
2026-04-30 18:40 17.37838 73.86271 29326 ft 491 kts 115°
2026-04-30 18:40 17.36334 73.89431 29665 ft 490 kts 115°
2026-04-30 18:41 17.34823 73.92632 30006 ft 490 kts 115°
2026-04-30 18:41 17.33310 73.95829 30297 ft 489 kts 115°
2026-04-30 18:41 17.31798 73.99012 30594 ft 489 kts 115°
2026-04-30 18:41 17.30285 74.02194 30895 ft 488 kts 115°
2026-04-30 18:42 17.29263 74.04341 31100 ft 488 kts 115°
2026-04-30 18:42 17.25747 74.11709 31797 ft 486 kts 115°
2026-04-30 18:42 17.24237 74.14872 32107 ft 485 kts 115°
2026-04-30 18:45 17.09217 74.46229 33908 ft 485 kts 115°
2026-04-30 18:45 17.07701 74.49386 33909 ft 485 kts 115°
2026-04-30 18:46 17.04674 74.55683 33903 ft 485 kts 115°
2026-04-30 18:46 17.01647 74.61976 33902 ft 485 kts 115°
2026-04-30 18:47 16.98638 74.68223 33895 ft 485 kts 115°
2026-04-30 18:47 16.96612 74.72429 33895 ft 485 kts 115°
2026-04-30 18:48 16.92575 74.80797 33890 ft 484 kts 115°
2026-04-30 18:48 16.89538 74.87087 33891 ft 484 kts 115°
2026-04-30 18:49 16.86499 74.93372 33894 ft 484 kts 116°
2026-04-30 18:49 16.83455 74.99663 33887 ft 484 kts 116°
2026-04-30 18:50 16.80422 75.05926 33895 ft 483 kts 116°
2026-04-30 18:50 16.77405 75.12150 33892 ft 484 kts 116°
2026-04-30 18:51 16.74363 75.18418 33892 ft 484 kts 116°
2026-04-30 18:51 16.71313 75.24698 33886 ft 484 kts 116°
2026-04-30 18:52 16.68266 75.30963 33884 ft 484 kts 116°
2026-04-30 18:52 16.65217 75.37228 33885 ft 484 kts 116°
2026-04-30 18:53 16.62164 75.43496 33887 ft 484 kts 115°
2026-04-30 18:53 16.59169 75.49740 33876 ft 485 kts 115°
2026-04-30 18:54 16.56237 75.56085 33877 ft 485 kts 114°
2026-04-30 18:54 16.53324 75.62426 33874 ft 485 kts 114°
2026-04-30 18:55 16.50401 75.68760 33876 ft 484 kts 114°
2026-04-30 18:55 16.46010 75.78232 33875 ft 484 kts 114°
2026-04-30 18:56 16.41605 75.87712 33873 ft 485 kts 114°
2026-04-30 18:57 16.37208 75.97166 33865 ft 485 kts 114°
2026-04-30 18:57 16.34249 76.03497 33864 ft 485 kts 114°
2026-04-30 18:58 16.29788 76.12958 33864 ft 485 kts 115°
2026-04-30 18:59 16.25316 76.22426 33854 ft 487 kts 114°
2026-04-30 19:00 16.19358 76.35034 33853 ft 486 kts 115°
2026-04-30 19:01 16.13386 76.47646 33851 ft 486 kts 115°
2026-04-30 19:02 16.08898 76.57111 33840 ft 487 kts 114°
2026-04-30 19:03 16.02890 76.69756 33831 ft 487 kts 114°
2026-04-30 19:04 15.96899 76.82348 33821 ft 487 kts 114°
2026-04-30 19:05 15.90883 76.94970 33815 ft 487 kts 115°
2026-04-30 19:06 15.84876 77.07545 33812 ft 486 kts 115°
2026-04-30 19:06 15.80354 77.16999 33821 ft 486 kts 115°
2026-04-30 19:07 15.75848 77.26405 33816 ft 487 kts 115°
2026-04-30 19:08 15.69813 77.39009 33815 ft 487 kts 114°
2026-04-30 19:09 15.65310 77.48475 33815 ft 487 kts 114°
2026-04-30 19:09 15.62307 77.54781 33802 ft 487 kts 115°
2026-04-30 19:10 15.56296 77.67375 33812 ft 487 kts 114°